This is the latest recevied weather packets stored in our database for station/object KF0PEC-15. If no packets are shown the sender has not sent any weather packets the latest 10 day(s).
| Time | Temp. | Humidity | Pressure | Rain* | Wind** | Luminosity | Snow |
|---|---|---|---|---|---|---|---|
| 1777809437 | 3.33° C | 68% | 1024.2 hPa | 0 mm | - | 146 W/m² | - |
| 1777808851 | 3.33° C | 66% | 1024.3 hPa | 0 mm | - | 19 W/m² | - |
| 1777808255 | 3.33° C | 66% | 1024 hPa | 0 mm | - | 0 W/m² | - |
| 1777807745 | 3.33° C | 64% | 1024 hPa | 0 mm | - | 0 W/m² | - |
| 1777807265 | 3.33° C | 66% | 1024.5 hPa | 0 mm | - | 0 W/m² | - |
| 1777806770 | 2.78° C | 67% | 1024.6 hPa | 0 mm | - | 0 W/m² | - |
| 1777806187 | 2.78° C | 67% | 1024.8 hPa | 0 mm | - | 0 W/m² | - |
| 1777805630 | 3.33° C | 66% | 1024.5 hPa | 0 mm | - | 0 W/m² | - |
| 1777805040 | 3.33° C | 65% | 1024.6 hPa | 0 mm | - | 0 W/m² | - |
| 1777804465 | 3.33° C | 64% | 1024.4 hPa | 0 mm | - | 0 W/m² | - |
| 1777803865 | 3.89° C | 61% | 1024.1 hPa | 0 mm | - | 0 W/m² | - |
| 1777803330 | 3.89° C | 62% | 1024.1 hPa | 0 mm | - | 0 W/m² | - |
| 1777802825 | 3.89° C | 62% | 1024.1 hPa | 0 mm | - | 0 W/m² | - |
| 1777802270 | 3.89° C | 63% | 1024.2 hPa | 0 mm | - | 0 W/m² | - |
| 1777801745 | 3.89° C | 63% | 1024.3 hPa | 0 mm | - | 0 W/m² | - |
| 1777801193 | 3.33° C | 64% | 1024.5 hPa | 0 mm | - | 0 W/m² | - |
| 1777800670 | 3.33° C | 63% | 1024.6 hPa | 0 mm | - | 0 W/m² | - |
| 1777800175 | 3.33° C | 64% | 1024.6 hPa | 0 mm | - | 0 W/m² | - |
| 1777799670 | 3.33° C | 64% | 1024.4 hPa | 0 mm | - | 0 W/m² | - |
| 1777799150 | 3.33° C | 63% | 1024.6 hPa | 0 mm | - | 0 W/m² | - |
| 1777798590 | 3.33° C | 63% | 1024.8 hPa | 0 mm | - | 0 W/m² | - |
| 1777798020 | 3.33° C | 64% | 1024.7 hPa | 0 mm | - | 0 W/m² | - |
| 1777797537 | 3.89° C | 64% | 1024.6 hPa | 0 mm | - | 0 W/m² | - |
| 1777796950 | 3.89° C | 64% | 1024.6 hPa | 0 mm | - | 0 W/m² | - |
| 1777796450 | 3.89° C | 62% | 1024.5 hPa | 0 mm | - | 0 W/m² | - |
* Rain latest hour (hover to see other rain measurements)
** Current wind speed in m/s (hover to see current wind gust speed)